User: anonymous   Login
Location: Whitehorse
(60.7170°N, 135.0500°W)
Time: 12:02:00
(UTC-07:00)
Language:

Cosmos 2219 Rocket - Orbit

View from above orbital plane
View from above orbital plane
View from above satellite
View from above satellite

Ground track
Ground track

The orbit data is extracted from the following two-line orbital elements,

1 22220U 92076B   17113.74837904 -.00000157 +00000-0 -54698-4 0  9998
2 22220 070.9993 173.8423 0013188 345.8795 144.9161 14.16412223262739
Epoch (UTC): 23 April 2017 17:57:39
Eccentricity: 0.0013188
inclination: 70.9993°
perigee height: 828 km
apogee height: 847 km
right ascension of ascending node: 173.8423°
argument of perigee: 345.8795°
revolutions per day: 14.16412223
mean anomaly at epoch: 144.9161°
orbit number at epoch: 26273

The dashed part of the orbit path shows where the satellite is in the earth's shadow,  

DLR